QPF
0.00 0.00 0.00 0.00 0.00 0.00 0.00 0.00 0.01 0.03 0.03 0.04 0.03 0.02 0.02 0.01 0.01 0.01 0.01 0.01 0.01 0.01 0.01 0.02 0.03 0.02 0.01 0.01 0.02 0.02 0.04 0.05 0.06 0.07 0.10 0.06 0.01 0.00 0.00 0.00 0.02 0.03 0.01
0.00 0.00 0.00 0.01 0.01 0.00 0.01 0.01 0.01 0.02 0.04 0.05 0.04 0.03 0.03 0.02 0.02 0.01 0.01 0.00 0.00 0.00 0.01 0.03 0.04 0.03 0.02 0.01 0.02 0.04 0.03 0.02 0.04 0.04 0.06 0.04 0.01 0.00 0.00 0.01 0.02 0.03 0.01
0.00 0.00 0.00 0.01 0.02 0.01 0.01 0.01 0.01 0.03 0.05 0.06 0.06 0.04 0.03 0.02 0.03 0.02 0.01 0.01 0.01 0.01 0.01 0.04 0.05 0.05 0.03 0.02 0.04 0.06 0.06 0.03 0.02 0.03 0.10 0.22 0.07 0.01 0.01 0.02 0.03 0.01 0.01
0.00 0.00 0.01 0.01 0.02 0.01 0.02 0.03 0.04 0.05 0.05 0.04 0.05 0.04 0.03 0.03 0.03 0.03 0.02 0.01 0.01 0.00 0.01 0.03 0.05 0.04 0.02 0.03 0.06 0.07 0.06 0.03 0.02 0.03 0.15 0.24 0.16 0.03 0.03 0.06 0.06 0.01 0.01
0.00 0.00 0.02 0.02 0.02 0.02 0.03 0.07 0.09 0.07 0.05 0.04 0.05 0.04 0.03 0.04 0.03 0.02 0.02 0.01 0.00 0.00 0.00 0.02 0.02 0.02 0.02 0.02 0.04 0.06 0.05 0.03 0.04 0.10 0.18 0.23 0.21 0.05 0.02 0.05 0.04 0.01 0.02
0.00 0.00 0.02 0.01 0.01 0.03 0.05 0.11 0.12 0.09 0.08 0.06 0.05 0.03 0.04 0.04 0.03 0.01 0.01 0.01 0.00 0.00 0.00 0.00 0.01 0.02 0.02 0.02 0.02 0.03 0.03 0.05 0.08 0.12 0.17 0.20 0.18 0.05 0.03 0.05 0.04 0.04 0.02
0.00 0.00 0.01 0.01 0.01 0.02 0.04 0.08 0.11 0.12 0.12 0.09 0.04 0.04 0.06 0.05 0.02 0.02 0.01 0.01 0.00 0.00 0.00 0.00 0.01 0.02 0.02 0.01 0.01 0.01 0.01 0.03 0.05 0.09 0.16 0.20 0.14 0.05 0.04 0.06 0.07 0.06 0.04
0.00 0.00 0.00 0.00 0.01 0.01 0.02 0.04 0.08 0.13 0.13 0.08 0.03 0.04 0.04 0.03 0.02 0.01 0.01 0.01 0.00 0.00 0.00 0.00 0.01 0.02 0.01 0.00 0.00 0.00 0.00 0.01 0.01 0.04 0.10 0.15 0.12 0.06 0.04 0.07 0.11 0.11 0.07
0.00 0.00 0.00 0.00 0.00 0.00 0.01 0.03 0.07 0.11 0.11 0.09 0.05 0.04 0.03 0.02 0.01 0.01 0.00 0.00 0.00 0.00 0.00 0.00 0.01 0.01 0.00 0.00 0.00 0.00 0.00 0.00 0.00 0.02 0.04 0.06 0.07 0.05 0.04 0.06 0.08 0.10 0.09
0.00 0.00 0.00 0.00 0.00 0.00 0.00 0.01 0.04 0.07 0.08 0.08 0.05 0.04 0.02 0.01 0.01 0.00 0.00 0.00 0.00 0.00 0.00 0.00 0.00 0.00 0.00 0.00 0.00 0.00 0.00 0.00 0.01 0.01 0.01 0.01 0.01 0.02 0.01 0.01 0.02 0.03 0.03
0.00 0.00 0.00 0.00 0.00 0.00 0.01 0.00 0.02 0.04 0.04 0.05 0.04 0.03 0.02 0.05 0.02 0.01 0.00 0.00 0.00 0.00 0.01 0.00 0.00 0.00 0.00 0.00 0.00 0.00 0.00 0.01 0.01 0.03 0.03 0.00 0.00 0.00 0.00 0.00 0.00 0.01 0.01
0.00 0.00 0.00 0.00 0.00 0.00 0.03 0.04 0.06 0.06 0.02 0.02 0.02 0.01 0.04 0.07 0.05 0.01 0.00 0.00 0.00 0.00 0.00 0.00 0.00 0.00 0.00 0.00 0.00 0.00 0.01 0.00 0.01 0.04 0.02 0.01 0.01 0.01 0.00 0.00 0.00 0.00 0.00
0.00 0.00 0.00 0.00 0.00 0.00 0.05 0.06 0.07 0.09 0.08 0.05 0.02 0.00 0.04 0.02 0.01 0.00 0.00 0.00 0.00 0.00 0.00 0.00 0.00 0.00 0.00 0.00 0.00 0.00 0.00 0.00 0.02 0.04 0.01 0.02 0.03 0.03 0.02 0.01 0.01 0.01 0.00
0.00 0.00 0.00 0.00 0.00 0.00 0.00 0.01 0.03 0.05 0.07 0.08 0.02 0.00 0.01 0.01 0.01 0.00 0.00 0.00 0.00 0.01 0.01 0.00 0.00 0.00 0.00 0.00 0.00 0.00 0.00 0.02 0.07 0.09 0.02 0.02 0.03 0.03 0.02 0.02 0.02 0.02 0.02
0.00 0.00 0.00 0.00 0.00 0.00 0.00 0.00 0.01 0.03 0.04 0.04 0.03 0.01 0.00 0.00 0.01 0.00 0.00 0.00 0.00 0.00 0.00 0.00 0.00 0.00 0.00 0.00 0.00 0.00 0.01 0.03 0.09 0.08 0.05 0.05 0.06 0.09 0.06 0.05 0.02 0.02 0.02
0.00 0.00 0.00 0.00 0.00 0.00 0.00 0.00 0.00 0.01 0.02 0.02 0.02 0.01 0.00 0.00 0.00 0.00 0.00 0.00 0.00 0.00 0.00 0.00 0.00 0.00 0.00 0.00 0.00 0.00 0.01 0.02 0.06 0.09 0.11 0.12 0.08 0.10 0.11 0.10 0.07 0.05 0.03
0.00 0.00 0.00 0.00 0.00 0.00 0.00 0.00 0.00 0.00 0.01 0.01 0.01 0.00 0.00 0.00 0.00 0.00 0.00 0.00 0.00 0.00 0.00 0.00 0.00 0.00 0.00 0.00 0.00 0.00 0.00 0.01 0.02 0.05 0.07 0.12 0.06 0.03 0.04 0.06 0.08 0.08 0.07
0.00 0.00 0.00 0.00 0.00 0.00 0.00 0.00 0.00 0.00 0.01 0.01 0.00 0.01 0.00 0.00 0.00 0.00 0.00 0.00 0.00 0.00 0.00 0.00 0.00 0.00 0.00 0.00 0.00 0.00 0.00 0.00 0.00 0.00 0.01 0.02 0.01 0.00 0.00 0.00 0.01 0.02 0.05
0.00 0.00 0.00 0.00 0.00 0.00 0.00 0.00 0.00 0.01 0.02 0.02 0.01 0.01 0.01 0.00 0.00 0.00 0.00 0.00 0.00 0.00 0.01 0.00 0.00 0.00 0.00 0.00 0.00 0.00 0.00 0.00 0.00 0.00 0.00 0.00 0.00 0.00 0.00 0.00 0.00 0.00 0.00
0.00 0.00 0.00 0.00 0.00 0.01 0.03 0.07 0.10 0.11 0.18 0.19 0.12 0.06 0.01 0.01 0.00 0.01 0.00 0.00 0.00 0.02 0.04 0.03 0.04 0.03 0.01 0.00 0.00 0.00 0.00 0.00 0.00 0.00 0.00 0.00 0.00 0.00 0.00 0.00 0.00 0.00 0.00
0.00 0.00 0.00 0.00 0.00 0.02 0.08 0.17 0.24 0.28 0.25 0.23 0.22 0.12 0.07 0.02 0.01 0.02 0.01 0.01 0.02 0.06 0.05 0.05 0.09 0.09 0.04 0.01 0.02 0.04 0.01 0.00 0.00 0.00 0.00 0.00 0.00 0.00 0.00 0.00 0.00 0.00 0.00
0.00 0.00 0.00 0.00 0.00 0.01 0.04 0.08 0.13 0.17 0.13 0.13 0.14 0.12 0.08 0.04 0.02 0.02 0.02 0.03 0.06 0.11 0.14 0.13 0.19 0.19 0.10 0.03 0.06 0.14 0.08 0.02 0.00 0.00 0.00 0.00 0.00 0.00 0.00 0.00 0.00 0.00 0.00
0.00 0.00 0.00 0.00 0.00 0.00 0.01 0.03 0.06 0.14 0.17 0.22 0.22 0.20 0.16 0.10 0.05 0.03 0.03 0.04 0.06 0.09 0.13 0.18 0.22 0.25 0.20 0.09 0.04 0.10 0.17 0.14 0.04 0.00 0.00 0.00 0.00 0.00 0.00 0.00 0.00 0.00 0.00
0.00 0.00 0.00 0.00 0.00 0.00 0.00 0.02 0.06 0.12 0.15 0.14 0.13 0.17 0.13 0.11 0.09 0.08 0.07 0.08 0.07 0.07 0.10 0.13 0.16 0.22 0.25 0.18 0.09 0.04 0.05 0.08 0.06 0.03 0.01 0.00 0.00 0.00 0.00 0.00 0.00 0.00 0.00
0.00 0.00 0.00 0.00 0.00 0.00 0.00 0.01 0.04 0.07 0.08 0.07 0.07 0.15 0.14 0.11 0.11 0.09 0.09 0.10 0.08 0.08 0.08 0.12 0.17 0.22 0.23 0.20 0.15 0.08 0.04 0.03 0.02 0.07 0.08 0.02 0.00 0.00 0.00 0.00 0.00 0.00 0.00
0.00 0.00 0.00 0.00 0.00 0.00 0.00 0.00 0.01 0.03 0.04 0.05 0.07 0.11 0.13 0.13 0.12 0.11 0.10 0.10 0.10 0.10 0.11 0.14 0.18 0.24 0.24 0.25 0.19 0.12 0.08 0.05 0.02 0.04 0.10 0.08 0.03 0.00 0.00 0.00 0.00 0.00 0.00
MSLP
1008.15 1008.05 1008.09 1008.29 1008.62 1009.04 1009.45 1009.80 1010.02 1010.12 1010.12 1010.10 1010.11 1010.23 1010.47 1010.81 1011.22 1011.63 1011.96 1012.19 1012.29 1012.28 1012.21 1012.14 1012.09 1012.11 1012.19 1012.31 1012.45 1012.56 1012.64 1012.67 1012.66 1012.64 1012.63 1012.65 1012.69 1012.74 1012.80 1012.83 1012.84 1012.84 1012.83
1007.88 1007.88 1008.04 1008.36 1008.81 1009.31 1009.77 1010.12 1010.32 1010.38 1010.35 1010.29 1010.29 1010.41 1010.67 1011.04 1011.48 1011.90 1012.25 1012.47 1012.57 1012.56 1012.48 1012.40 1012.34 1012.35 1012.41 1012.49 1012.59 1012.66 1012.70 1012.71 1012.71 1012.71 1012.73 1012.78 1012.85 1012.92 1012.98 1013.00 1012.98 1012.95 1012.92
1007.61 1007.71 1007.98 1008.41 1008.95 1009.52 1010.02 1010.39 1010.60 1010.65 1010.60 1010.54 1010.55 1010.67 1010.93 1011.30 1011.72 1012.12 1012.44 1012.64 1012.72 1012.71 1012.64 1012.57 1012.53 1012.54 1012.59 1012.66 1012.72 1012.75 1012.76 1012.75 1012.75 1012.77 1012.84 1012.93 1013.04 1013.13 1013.20 1013.21 1013.18 1013.13 1013.08
1007.37 1007.55 1007.90 1008.41 1009.02 1009.64 1010.17 1010.57 1010.79 1010.87 1010.85 1010.81 1010.84 1010.97 1011.22 1011.56 1011.93 1012.28 1012.54 1012.70 1012.77 1012.75 1012.71 1012.68 1012.67 1012.71 1012.77 1012.82 1012.86 1012.87 1012.85 1012.83 1012.83 1012.87 1012.97 1013.10 1013.24 1013.37 1013.44 1013.46 1013.43 1013.37 1013.33
1007.18 1007.42 1007.82 1008.37 1009.01 1009.65 1010.21 1010.63 1010.89 1011.01 1011.04 1011.05 1011.12 1011.27 1011.51 1011.81 1012.13 1012.40 1012.60 1012.71 1012.75 1012.74 1012.73 1012.75 1012.80 1012.87 1012.95 1013.01 1013.04 1013.02 1012.98 1012.95 1012.95 1013.01 1013.13 1013.29 1013.47 1013.61 1013.70 1013.73 1013.70 1013.65 1013.62
1007.06 1007.33 1007.75 1008.31 1008.95 1009.59 1010.15 1010.59 1010.88 1011.06 1011.16 1011.24 1011.37 1011.55 1011.79 1012.06 1012.31 1012.52 1012.65 1012.71 1012.73 1012.74 1012.77 1012.83 1012.93 1013.06 1013.16 1013.23 1013.25 1013.22 1013.17 1013.13 1013.13 1013.20 1013.33 1013.51 1013.69 1013.85 1013.94 1013.98 1013.96 1013.93 1013.91
1007.03 1007.31 1007.72 1008.27 1008.88 1009.49 1010.04 1010.48 1010.81 1011.03 1011.21 1011.37 1011.56 1011.79 1012.04 1012.29 1012.51 1012.66 1012.74 1012.77 1012.78 1012.79 1012.85 1012.96 1013.11 1013.26 1013.39 1013.47 1013.48 1013.45 1013.38 1013.34 1013.34 1013.41 1013.55 1013.72 1013.90 1014.05 1014.15 1014.18 1014.17 1014.16 1014.17
1007.08 1007.35 1007.76 1008.28 1008.85 1009.43 1009.95 1010.37 1010.71 1010.98 1011.21 1011.45 1011.70 1011.98 1012.27 1012.52 1012.72 1012.84 1012.90 1012.91 1012.91 1012.94 1013.01 1013.14 1013.31 1013.48 1013.62 1013.69 1013.70 1013.66 1013.60 1013.55 1013.56 1013.63 1013.76 1013.92 1014.09 1014.22 1014.30 1014.32 1014.32 1014.32 1014.35
1007.18 1007.46 1007.86 1008.36 1008.90 1009.43 1009.90 1010.31 1010.64 1010.92 1011.19 1011.48 1011.79 1012.12 1012.44 1012.72 1012.93 1013.06 1013.12 1013.13 1013.13 1013.16 1013.24 1013.37 1013.53 1013.68 1013.80 1013.87 1013.87 1013.83 1013.77 1013.74 1013.76 1013.83 1013.96 1014.11 1014.25 1014.35 1014.40 1014.41 1014.40 1014.41 1014.47
1007.28 1007.58 1008.00 1008.49 1009.01 1009.50 1009.93 1010.29 1010.60 1010.87 1011.16 1011.47 1011.82 1012.20 1012.56 1012.87 1013.12 1013.27 1013.35 1013.38 1013.39 1013.42 1013.49 1013.59 1013.72 1013.84 1013.92 1013.96 1013.96 1013.92 1013.89 1013.89 1013.93 1014.02 1014.15 1014.28 1014.39 1014.46 1014.48 1014.47 1014.46 1014.47 1014.53
1007.31 1007.66 1008.11 1008.62 1009.13 1009.59 1009.99 1010.31 1010.58 1010.83 1011.10 1011.42 1011.78 1012.18 1012.58 1012.93 1013.22 1013.42 1013.53 1013.59 1013.62 1013.65 1013.70 1013.76 1013.84 1013.91 1013.95 1013.97 1013.96 1013.94 1013.95 1013.99 1014.07 1014.19 1014.33 1014.46 1014.55 1014.59 1014.59 1014.55 1014.53 1014.53 1014.60
1007.23 1007.63 1008.13 1008.66 1009.18 1009.64 1010.01 1010.30 1010.53 1010.75 1011.00 1011.30 1011.66 1012.06 1012.47 1012.86 1013.19 1013.44 1013.61 1013.71 1013.77 1013.80 1013.83 1013.85 1013.88 1013.90 1013.90 1013.89 1013.89 1013.91 1013.96 1014.06 1014.20 1014.37 1014.53 1014.66 1014.74 1014.76 1014.74 1014.69 1014.65 1014.64 1014.70
1006.99 1007.45 1007.99 1008.56 1009.10 1009.56 1009.93 1010.20 1010.42 1010.61 1010.83 1011.10 1011.44 1011.82 1012.24 1012.64 1013.00 1013.30 1013.52 1013.67 1013.77 1013.82 1013.84 1013.84 1013.83 1013.81 1013.79 1013.78 1013.80 1013.86 1013.97 1014.13 1014.34 1014.55 1014.75 1014.89 1014.97 1014.98 1014.95 1014.89 1014.84 1014.83 1014.88
1006.61 1007.10 1007.68 1008.27 1008.84 1009.32 1009.70 1009.98 1010.20 1010.38 1010.58 1010.82 1011.13 1011.49 1011.88 1012.28 1012.66 1013.00 1013.27 1013.47 1013.61 1013.70 1013.74 1013.74 1013.72 1013.70 1013.67 1013.68 1013.73 1013.84 1014.01 1014.24 1014.50 1014.76 1014.98 1015.14 1015.23 1015.24 1015.20 1015.14 1015.10 1015.09 1015.13
1006.13 1006.62 1007.20 1007.81 1008.39 1008.89 1009.31 1009.62 1009.87 1010.07 1010.27 1010.50 1010.77 1011.09 1011.45 1011.83 1012.21 1012.56 1012.87 1013.13 1013.33 1013.47 1013.56 1013.60 1013.60 1013.60 1013.60 1013.64 1013.73 1013.89 1014.12 1014.40 1014.69 1014.98 1015.22 1015.39 1015.48 1015.50 1015.47 1015.43 1015.39 1015.39 1015.43
1005.62 1006.09 1006.64 1007.23 1007.81 1008.34 1008.80 1009.17 1009.47 1009.72 1009.95 1010.18 1010.42 1010.70 1011.01 1011.35 1011.70 1012.05 1012.39 1012.70 1012.96 1013.18 1013.34 1013.45 1013.52 1013.58 1013.63 1013.72 1013.86 1014.06 1014.32 1014.62 1014.93 1015.22 1015.46 1015.62 1015.70 1015.73 1015.71 1015.69 1015.68 1015.70 1015.75
1005.18 1005.59 1006.09 1006.63 1007.20 1007.75 1008.25 1008.70 1009.08 1009.40 1009.67 1009.92 1010.15 1010.38 1010.64 1010.92 1011.23 1011.56 1011.91 1012.26 1012.60 1012.90 1013.16 1013.36 1013.52 1013.66 1013.79 1013.94 1014.12 1014.35 1014.62 1014.92 1015.21 1015.47 1015.67 1015.81 1015.87 1015.89 1015.90 1015.90 1015.92 1015.98 1016.04
1004.88 1005.22 1005.65 1006.13 1006.67 1007.22 1007.77 1008.29 1008.76 1009.16 1009.50 1009.77 1009.99 1010.19 1010.39 1010.60 1010.85 1011.15 1011.50 1011.89 1012.29 1012.68 1013.04 1013.36 1013.63 1013.86 1014.06 1014.27 1014.50 1014.74 1015.00 1015.27 1015.52 1015.72 1015.87 1015.96 1015.99 1016.00 1016.01 1016.05 1016.11 1016.20 1016.29
1004.77 1005.05 1005.39 1005.81 1006.30 1006.85 1007.43 1008.01 1008.56 1009.05 1009.45 1009.75 1009.97 1010.14 1010.27 1010.42 1010.61 1010.87 1011.21 1011.62 1012.08 1012.55 1013.01 1013.43 1013.81 1014.14 1014.42 1014.69 1014.94 1015.19 1015.43 1015.65 1015.84 1015.97 1016.05 1016.08 1016.08 1016.07 1016.09 1016.14 1016.24 1016.37 1016.50
1004.84 1005.07 1005.35 1005.71 1006.15 1006.67 1007.26 1007.89 1008.50 1009.05 1009.50 1009.84 1010.06 1010.20 1010.29 1010.37 1010.51 1010.72 1011.04 1011.46 1011.96 1012.50 1013.04 1013.56 1014.03 1014.44 1014.80 1015.11 1015.39 1015.64 1015.86 1016.03 1016.16 1016.22 1016.24 1016.21 1016.17 1016.14 1016.15 1016.23 1016.35 1016.51 1016.68
1005.05 1005.28 1005.51 1005.81 1006.20 1006.68 1007.27 1007.90 1008.54 1009.14 1009.63 1009.98 1010.21 1010.32 1010.37 1010.41 1010.49 1010.67 1010.97 1011.39 1011.91 1012.49 1013.09 1013.68 1014.22 1014.70 1015.11 1015.47 1015.77 1016.02 1016.22 1016.36 1016.44 1016.46 1016.42 1016.35 1016.28 1016.23 1016.24 1016.32 1016.47 1016.66 1016.85
1005.35 1005.59 1005.82 1006.07 1006.40 1006.84 1007.39 1008.00 1008.64 1009.24 1009.74 1010.11 1010.33 1010.43 1010.45 1010.46 1010.52 1010.67 1010.95 1011.36 1011.89 1012.49 1013.12 1013.74 1014.32 1014.84 1015.29 1015.68 1016.00 1016.26 1016.46 1016.60 1016.66 1016.66 1016.60 1016.50 1016.41 1016.35 1016.36 1016.44 1016.61 1016.81 1017.03
1005.66 1005.96 1006.19 1006.42 1006.70 1007.08 1007.56 1008.13 1008.73 1009.31 1009.80 1010.15 1010.37 1010.47 1010.48 1010.48 1010.52 1010.66 1010.93 1011.33 1011.84 1012.43 1013.06 1013.69 1014.27 1014.80 1015.27 1015.67 1016.01 1016.30 1016.52 1016.68 1016.76 1016.77 1016.72 1016.64 1016.55 1016.49 1016.49 1016.58 1016.75 1016.97 1017.20
1005.96 1006.31 1006.56 1006.77 1007.01 1007.32 1007.73 1008.23 1008.77 1009.29 1009.75 1010.08 1010.29 1010.39 1010.41 1010.42 1010.47 1010.61 1010.87 1011.25 1011.74 1012.31 1012.90 1013.50 1014.06 1014.57 1015.03 1015.43 1015.80 1016.11 1016.38 1016.58 1016.71 1016.77 1016.76 1016.71 1016.64 1016.60 1016.60 1016.69 1016.85 1017.07 1017.32
1006.21 1006.61 1006.88 1007.07 1007.27 1007.52 1007.85 1008.27 1008.73 1009.19 1009.60 1009.91 1010.11 1010.21 1010.25 1010.28 1010.35 1010.50 1010.76 1011.13 1011.59 1012.11 1012.65 1013.19 1013.70 1014.17 1014.60 1015.00 1015.37 1015.72 1016.03 1016.30 1016.50 1016.62 1016.68 1016.68 1016.65 1016.62 1016.64 1016.72 1016.87 1017.09 1017.35
1006.40 1006.83 1007.11 1007.29 1007.44 1007.63 1007.90 1008.23 1008.62 1009.02 1009.37 1009.65 1009.85 1009.96 1010.03 1010.09 1010.18 1010.35 1010.62 1010.97 1011.40 1011.87 1012.35 1012.82 1013.26 1013.66 1014.05 1014.43 1014.80 1015.17 1015.53 1015.86 1016.13 1016.33 1016.46 1016.52 1016.54 1016.54 1016.56 1016.63 1016.78 1017.00 1017.26
Thickness
5819 5816 5811 5807 5804 5800 5796 5792 5789 5787 5785 5783 5780 5778 5775 5773 5770 5768 5766 5764 5763 5762 5761 5761 5761 5762 5764 5765 5767 5768 5769 5769 5770 5771 5771 5772 5774 5775 5777 5778 5780 5781 5781
5824 5817 5811 5807 5803 5799 5795 5791 5788 5785 5783 5781 5779 5776 5773 5770 5767 5765 5763 5761 5760 5758 5757 5756 5756 5757 5759 5762 5764 5766 5767 5768 5769 5770 5771 5772 5773 5774 5775 5776 5777 5778 5778
5825 5816 5811 5806 5802 5798 5794 5790 5787 5784 5781 5778 5776 5774 5771 5768 5765 5763 5761 5759 5757 5756 5754 5753 5752 5753 5755 5759 5762 5764 5765 5767 5769 5769 5770 5770 5771 5772 5773 5774 5775 5776 5776
5826 5818 5812 5806 5801 5797 5793 5789 5785 5782 5779 5776 5773 5771 5768 5765 5762 5760 5759 5757 5755 5754 5752 5750 5749 5750 5752 5756 5759 5761 5763 5765 5767 5768 5768 5768 5769 5770 5771 5772 5772 5773 5774
5826 5819 5811 5805 5800 5796 5792 5788 5784 5781 5777 5774 5771 5768 5765 5762 5760 5758 5756 5755 5753 5752 5751 5749 5748 5749 5751 5754 5757 5759 5761 5762 5764 5765 5766 5766 5766 5767 5769 5770 5770 5771 5771
5823 5817 5810 5805 5800 5795 5791 5787 5783 5779 5776 5773 5769 5766 5763 5760 5757 5755 5754 5752 5751 5750 5749 5749 5749 5748 5749 5752 5754 5756 5758 5759 5760 5761 5762 5763 5763 5765 5766 5767 5768 5768 5769
5821 5816 5809 5804 5799 5795 5791 5786 5782 5778 5774 5771 5767 5764 5761 5758 5755 5753 5751 5750 5749 5748 5747 5748 5748 5748 5749 5750 5752 5753 5754 5755 5757 5758 5758 5759 5761 5762 5764 5765 5766 5766 5767
5820 5815 5808 5803 5799 5794 5790 5786 5781 5776 5773 5769 5766 5762 5759 5755 5753 5751 5749 5747 5747 5746 5746 5746 5747 5747 5748 5748 5749 5749 5750 5752 5755 5756 5756 5757 5758 5760 5762 5763 5763 5764 5764
5820 5814 5808 5802 5798 5794 5789 5785 5780 5775 5771 5767 5764 5760 5756 5753 5750 5748 5746 5745 5744 5744 5743 5743 5744 5745 5745 5746 5747 5748 5749 5751 5753 5755 5755 5755 5756 5757 5759 5760 5761 5761 5762
5817 5814 5811 5806 5800 5794 5789 5783 5779 5774 5770 5766 5762 5758 5755 5751 5748 5746 5744 5743 5742 5741 5741 5740 5740 5741 5743 5744 5745 5747 5748 5750 5753 5753 5752 5752 5753 5754 5756 5757 5758 5758 5759
5815 5814 5812 5808 5803 5798 5790 5783 5777 5773 5768 5764 5760 5756 5753 5749 5746 5743 5742 5740 5739 5738 5737 5737 5738 5739 5740 5742 5744 5746 5747 5750 5751 5750 5749 5750 5751 5752 5753 5754 5755 5755 5755
5811 5812 5812 5809 5804 5799 5793 5783 5778 5773 5767 5764 5760 5755 5753 5749 5746 5743 5738 5737 5736 5735 5735 5736 5736 5736 5737 5740 5743 5744 5746 5749 5748 5746 5745 5747 5748 5750 5750 5751 5752 5752 5752
5814 5814 5813 5809 5805 5798 5790 5784 5779 5774 5769 5766 5762 5757 5754 5750 5745 5740 5737 5733 5733 5733 5734 5735 5735 5735 5737 5740 5742 5743 5744 5744 5743 5742 5742 5743 5745 5747 5748 5749 5749 5750 5750
5814 5812 5813 5810 5805 5798 5791 5785 5780 5775 5770 5768 5764 5761 5756 5752 5747 5742 5738 5734 5733 5732 5733 5735 5736 5738 5740 5741 5742 5741 5739 5738 5737 5737 5737 5739 5741 5743 5744 5745 5746 5747 5748
5813 5810 5810 5808 5803 5797 5791 5785 5780 5776 5772 5769 5766 5763 5758 5753 5748 5744 5741 5737 5736 5734 5733 5735 5737 5737 5737 5737 5737 5736 5734 5733 5731 5731 5732 5734 5736 5738 5740 5741 5742 5743 5744
5814 5811 5809 5805 5801 5796 5789 5785 5781 5777 5773 5770 5766 5763 5758 5754 5749 5744 5742 5738 5738 5736 5734 5734 5734 5732 5732 5731 5730 5730 5729 5728 5727 5726 5726 5728 5730 5732 5734 5735 5737 5738 5739
5815 5813 5808 5804 5801 5796 5790 5787 5782 5777 5773 5769 5765 5762 5758 5754 5750 5746 5742 5738 5738 5736 5734 5733 5731 5730 5726 5725 5724 5724 5724 5724 5723 5722 5722 5722 5724 5725 5728 5729 5731 5732 5734
5816 5812 5808 5804 5799 5795 5790 5785 5782 5778 5774 5770 5765 5761 5758 5754 5751 5747 5742 5738 5738 5736 5734 5730 5727 5724 5722 5721 5719 5719 5719 5720 5721 5720 5719 5719 5719 5719 5721 5723 5725 5726 5728
5816 5811 5806 5803 5797 5793 5788 5784 5781 5778 5774 5769 5764 5759 5757 5755 5751 5747 5742 5739 5737 5734 5731 5728 5724 5721 5718 5716 5715 5714 5715 5715 5716 5717 5717 5716 5716 5716 5716 5717 5719 5721 5723
5816 5812 5806 5801 5796 5792 5787 5781 5777 5772 5768 5765 5761 5756 5755 5753 5750 5746 5741 5738 5736 5731 5727 5724 5721 5719 5716 5714 5713 5710 5710 5712 5712 5711 5712 5712 5713 5713 5714 5714 5716 5717 5719
5809 5806 5802 5796 5793 5788 5780 5773 5768 5763 5761 5759 5757 5754 5751 5749 5747 5744 5739 5735 5732 5728 5724 5721 5718 5714 5711 5711 5706 5701 5703 5708 5707 5706 5707 5708 5709 5710 5711 5713 5715 5715 5716
5801 5798 5796 5792 5788 5784 5777 5771 5766 5761 5758 5756 5754 5750 5747 5744 5742 5740 5736 5731 5727 5724 5721 5717 5713 5708 5706 5707 5701 5693 5690 5693 5699 5704 5704 5704 5705 5707 5709 5711 5712 5714 5715
5793 5790 5787 5785 5782 5777 5772 5766 5761 5755 5751 5748 5745 5742 5742 5739 5737 5735 5732 5728 5723 5719 5715 5712 5709 5703 5698 5700 5703 5695 5687 5684 5690 5697 5700 5702 5703 5704 5707 5709 5710 5712 5712
5787 5785 5782 5778 5777 5771 5766 5759 5752 5745 5740 5740 5740 5738 5736 5734 5732 5730 5727 5724 5719 5715 5711 5709 5706 5702 5697 5692 5696 5701 5702 5698 5691 5688 5695 5700 5702 5702 5703 5706 5707 5708 5709
5782 5778 5777 5772 5769 5765 5761 5755 5748 5743 5739 5739 5738 5734 5730 5728 5726 5724 5722 5718 5715 5711 5708 5706 5704 5700 5697 5693 5691 5695 5700 5702 5702 5692 5687 5693 5698 5701 5703 5704 5704 5706 5706
5773 5771 5769 5765 5761 5758 5755 5751 5745 5740 5736 5733 5730 5726 5723 5721 5719 5718 5716 5713 5711 5708 5705 5703 5702 5699 5696 5693 5692 5693 5696 5697 5697 5696 5691 5691 5693 5698 5703 5704 5703 5703 5703